This demonstration page uses our WeatherBlox Daily Observations layout. Learn more.

Left ArrowRight Arrow

Hourly Observations for September 26, 2017

Temp ( °F °C ) Dew Point ( °F °C ) Humidity (%) Winds ( mph kmh ) Pressure ( in mb ) Visibility ( mi km ) Precip ( " mm )
12:01 am 00:01 Mostly Cloudy with Light Rain 57 13.9 56 13.3 96 96 NW 8 13 30 1016 10 16.0934 0 0.0254
12:04 am 00:04 Cloudy with Light Rain 57 13.9 56 13.3 96 96 NW 8 13 30 1016 10 16.0934 0 0.0254
12:50 am 00:50 Cloudy 57 14 55 13 94 94 N 8 13 30 1016 10 16.0934 0 0.0254
12:54 am 00:54 Cloudy 57 13.9 55 12.8 93 93 NNW 9 15 29.98 1015 10 16.0934 0 0.0254
1:12 am 01:12 Cloudy 57 13.9 55 12.8 93 93 NW 9 15 30 1016 10 16.0934 0 0.0254
1:35 am 01:35 Cloudy 57 13.9 55 12.8 93 93 NW 9 15 30 1016 10 16.0934 0 0.0254
1:54 am 01:54 Cloudy 57 13.9 55 12.8 93 93 NW 10 17 30 1016 10 16.0934 0 0.0254
2:22 am 02:22 Cloudy 56 13.3 54 12.2 93 93 NW 14 22 30.03 1017 9 14.48406 0 0
2:52 am 02:52 Cloudy 55 13 54 12 94 94 NNW 12 19 30.03 1017 10 16.0934 0 0
2:54 am 02:54 Cloudy 56 13.3 54 12.2 93 93 NNW 13 20 30.01 1016 10 16.0934 0 0
3:11 am 03:11 Cloudy 56 13.3 53 11.7 90 90 NW 10 17 30.03 1017 10 16.0934 0 0
3:54 am 03:54 Cloudy 56 13.3 53 11.7 90 90 NNW 10 17 30.01 1016 10 16.0934 0 0
4:28 am 04:28 Cloudy 55 12.8 52 11.1 90 90 NNW 12 19 30.03 1017 10 16.0934 0 0
4:54 am 04:54 Cloudy 55 12.8 52 11.1 90 90 NW 15 24 30.02 1017 10 16.0934 0 0
5:54 am 05:54 Cloudy 55 12.8 51 10.6 87 87 NNW 14 22 30.04 1017 10 16.0934 0 0
6:54 am 06:54 Cloudy 54 12.2 51 10.6 90 90 NNW 12 19 30.07 1018 10 16.0934 0 0
7:49 am 07:49 Cloudy 54 12 52 11 94 94 NNW 13 20 30.09 1019 7 11.26538 0 0
7:54 am 07:54 Cloudy 54 12.2 51 10.6 90 90 NNW 14 22 30.1 1019 9 14.48406 0 0
8:49 am 08:49 Mostly Cloudy 54 12 50 10 88 88 N 15 24 30.12 1020 10 16.0934 0 0
8:54 am 08:54 Mostly Cloudy 55 12.8 50 10 83 83 N 16 26 30.12 1020 10 16.0934 0 0
9:14 am 09:14 Cloudy 55 12.8 50 10 83 83 NNW 14 22 30.12 1020 10 16.0934 0 0
9:54 am 09:54 Cloudy 55 12.8 49 9.4 80 80 NNW 14 22 30.14 1021 10 16.0934 0 0
10:54 am 10:54 Cloudy 56 13.3 49 9.4 77 77 N 14 22 30.16 1021 10 16.0934 0 0
11:49 am 11:49 Mostly Cloudy 59 15 50 10 72 72 N 13 20 30.15 1021 10 16.0934 0 0
11:54 am 11:54 Mostly Cloudy 61 16.1 50 10 67 67 N 13 20 30.14 1021 10 16.0934 0 0
12:54 pm 12:54 Mostly Cloudy 62 16.7 50 10 65 65 N 12 19 30.14 1021 10 16.0934 0 0
1:54 pm 13:54 Mostly Cloudy 63 17.2 50 10 63 63 NNW 8 13 30.13 1020 10 16.0934 0 0
2:28 pm 14:28 Partly Cloudy 65 18.3 50 10 59 59 VRB 5 7 30.12 1020 10 16.0934 0 0
2:50 pm 14:50 Mostly Cloudy 64 18 52 11 64 64 N 10 17 30.15 1021 10 16.0934 0 0
2:54 pm 14:54 Partly Cloudy 65 18.3 51 10.6 61 61 N 8 13 30.12 1020 10 16.0934 0 0
3:54 pm 15:54 Mostly Sunny 64 17.8 50 10 60 60 VRB 3 6 30.13 1020 10 16.0934 0 0
4:54 pm 16:54 Mostly Sunny 65 18.3 51 10.6 61 61 N 3 6 30.11 1020 10 16.0934 0 0
5:54 pm 17:54 Sunny 65 18.3 51 10.6 61 61 NNW 9 15 30.12 1020 10 16.0934 0 0
6:54 pm 18:54 Sunny 62 16.7 52 11.1 70 70 NNE 5 7 30.13 1020 10 16.0934 0 0
7:54 pm 19:54 Clear 60 15.6 52 11.1 75 75 NNE 7 11 30.13 1020 10 16.0934 0 0
8:54 pm 20:54 Clear 58 14.4 52 11.1 81 81 N 3 6 30.17 1022 10 16.0934 0 0
9:54 pm 21:54 Clear 58 14.4 53 11.7 84 84 N 6 9 30.17 1022 10 16.0934 0 0
10:54 pm 22:54 Clear 58 14.4 53 11.7 84 84 NNW 7 11 30.19 1022 10 16.0934 0 0
11:54 pm 23:54 Clear 56 13.3 52 11.1 87 87 N 9 15 30.19 1022 10 16.0934 0 0

Powered by AerisWeather